timestamp,wind_dir_avg,wind_spd_max_dir,wind_spd_avg,wind_spd_gust,battery_voltage,lat,long
2018-01-31 00:00:00+00:00,196.0,196.0,15.56,18.17,,47.59359,-54.27349
2018-01-31 00:10:00+00:00,204.0,201.0,16.2,20.56,,47.59359,-54.27349
2018-01-31 00:20:00+00:00,205.0,214.0,16.08,19.85,,47.59359,-54.27349
2018-01-31 00:30:00+00:00,208.0,213.0,15.77,18.47,,47.59359,-54.27349
2018-01-31 00:40:00+00:00,209.0,207.0,17.69,20.52,,47.59359,-54.27349
2018-01-31 00:50:00+00:00,202.0,197.0,16.13,19.99,,47.59359,-54.27349
2018-01-31 01:00:00+00:00,206.0,213.0,17.51,21.78,,47.59359,-54.27349
2018-01-31 01:10:00+00:00,204.0,205.0,16.25,18.27,,47.59359,-54.27349
2018-01-31 01:20:00+00:00,206.0,209.0,17.32,20.63,,47.59359,-54.27349
2018-01-31 01:30:00+00:00,205.0,210.0,15.08,19.51,,47.59359,-54.27349
2018-01-31 01:40:00+00:00,215.0,215.0,14.37,17.63,,47.59359,-54.27349
2018-01-31 01:50:00+00:00,216.0,216.0,16.38,19.71,,47.59359,-54.27349
2018-01-31 02:00:00+00:00,210.0,210.0,17.97,21.22,,47.59359,-54.27349
2018-01-31 02:10:00+00:00,215.0,219.0,14.71,17.13,,47.59359,-54.27349
2018-01-31 02:20:00+00:00,205.0,207.0,14.67,17.0,,47.59359,-54.27349
2018-01-31 02:30:00+00:00,218.0,220.0,16.23,19.97,,47.59359,-54.27349
2018-01-31 02:40:00+00:00,227.0,221.0,14.44,17.49,,47.59359,-54.27349
2018-01-31 02:50:00+00:00,226.0,225.0,12.46,14.21,,47.59359,-54.27349
2018-01-31 03:00:00+00:00,213.0,214.0,14.67,17.24,,47.59359,-54.27349
2018-01-31 03:10:00+00:00,216.0,217.0,14.74,17.23,,47.59359,-54.27349
2018-01-31 03:20:00+00:00,222.0,224.0,14.92,16.76,,47.59359,-54.27349
2018-01-31 03:30:00+00:00,222.0,216.0,14.68,17.15,,47.59359,-54.27349
2018-01-31 03:40:00+00:00,223.0,228.0,14.8,18.26,,47.59359,-54.27349
2018-01-31 03:50:00+00:00,220.0,223.0,12.25,14.23,,47.59359,-54.27349
2018-01-31 04:00:00+00:00,217.0,221.0,14.9,17.46,,47.59359,-54.27349
2018-01-31 04:10:00+00:00,216.0,220.0,15.2,18.1,,47.59359,-54.27349
2018-01-31 04:20:00+00:00,213.0,221.0,16.85,20.7,,47.59359,-54.27349
2018-01-31 04:30:00+00:00,208.0,204.0,17.14,19.94,,47.59359,-54.27349
2018-01-31 04:40:00+00:00,212.0,216.0,16.15,18.24,,47.59359,-54.27349
2018-01-31 04:50:00+00:00,205.0,203.0,15.33,17.39,,47.59359,-54.27349
2018-01-31 05:00:00+00:00,203.0,203.0,13.1,15.46,,47.59359,-54.27349
2018-01-31 05:10:00+00:00,205.0,204.0,18.8,23.11,,47.59359,-54.27349
2018-01-31 05:20:00+00:00,202.0,203.0,16.47,19.84,,47.59359,-54.27349
2018-01-31 05:30:00+00:00,207.0,208.0,15.61,18.44,,47.59359,-54.27349
2018-01-31 05:40:00+00:00,197.0,191.0,15.71,19.4,,47.59359,-54.27349
2018-01-31 05:50:00+00:00,197.0,195.0,15.02,17.73,,47.59359,-54.27349
2018-01-31 06:00:00+00:00,195.0,202.0,14.98,16.97,,47.59359,-54.27349
2018-01-31 06:10:00+00:00,194.0,197.0,16.51,19.83,,47.59359,-54.27349
2018-01-31 06:20:00+00:00,195.0,199.0,15.66,18.22,,47.59359,-54.27349
2018-01-31 06:30:00+00:00,198.0,195.0,18.4,21.94,,47.59359,-54.27349
2018-01-31 06:40:00+00:00,200.0,201.0,14.75,17.72,,47.59359,-54.27349
2018-01-31 06:50:00+00:00,195.0,198.0,16.51,21.42,,47.59359,-54.27349
2018-01-31 07:00:00+00:00,194.0,196.0,16.7,20.28,,47.59359,-54.27349
2018-01-31 07:10:00+00:00,192.0,199.0,17.44,20.1,,47.59359,-54.27349
2018-01-31 07:20:00+00:00,190.0,189.0,16.11,18.89,,47.59359,-54.27349
2018-01-31 07:30:00+00:00,195.0,199.0,16.91,20.0,,47.59359,-54.27349
2018-01-31 07:40:00+00:00,194.0,191.0,17.1,20.35,,47.59359,-54.27349
2018-01-31 07:50:00+00:00,193.0,188.0,16.9,20.39,,47.59359,-54.27349
2018-01-31 08:00:00+00:00,196.0,196.0,16.28,19.76,,47.59359,-54.27349
2018-01-31 08:10:00+00:00,199.0,201.0,15.24,18.67,,47.59359,-54.27349
2018-01-31 08:20:00+00:00,200.0,198.0,16.21,19.2,,47.59359,-54.27349
2018-01-31 08:30:00+00:00,197.0,201.0,15.04,17.89,,47.59359,-54.27349
2018-01-31 08:40:00+00:00,196.0,193.0,16.7,19.87,,47.59359,-54.27349
2018-01-31 08:50:00+00:00,197.0,197.0,15.52,19.35,,47.59359,-54.27349
2018-01-31 09:00:00+00:00,195.0,197.0,17.28,20.08,,47.59359,-54.27349
2018-01-31 09:10:00+00:00,196.0,199.0,17.34,22.03,,47.59359,-54.27349
2018-01-31 09:20:00+00:00,198.0,198.0,17.5,22.09,,47.59359,-54.27349
2018-01-31 09:30:00+00:00,198.0,197.0,18.49,21.66,,47.59359,-54.27349
2018-01-31 09:40:00+00:00,198.0,191.0,18.36,21.72,,47.59359,-54.27349
2018-01-31 09:50:00+00:00,199.0,193.0,22.61,26.29,,47.59359,-54.27349
2018-01-31 10:00:00+00:00,197.0,191.0,19.5,24.26,,47.59359,-54.27349
2018-01-31 10:10:00+00:00,199.0,199.0,17.37,20.13,,47.59359,-54.27349
2018-01-31 10:20:00+00:00,212.0,214.0,18.35,22.95,,47.59359,-54.27349
2018-01-31 10:30:00+00:00,218.0,214.0,20.98,24.6,,47.59359,-54.27349
2018-01-31 10:40:00+00:00,227.0,230.0,15.98,18.79,,47.59359,-54.27349
2018-01-31 10:50:00+00:00,226.0,230.0,14.88,17.02,,47.59359,-54.27349
2018-01-31 11:00:00+00:00,226.0,221.0,16.23,19.68,,47.59359,-54.27349
2018-01-31 11:10:00+00:00,224.0,222.0,14.01,16.11,,47.59359,-54.27349
2018-01-31 11:20:00+00:00,226.0,226.0,15.45,17.41,,47.59359,-54.27349
2018-01-31 11:30:00+00:00,230.0,225.0,13.23,16.63,,47.59359,-54.27349
2018-01-31 11:40:00+00:00,229.0,224.0,12.43,13.8,,47.59359,-54.27349
2018-01-31 11:50:00+00:00,231.0,229.0,13.58,15.78,,47.59359,-54.27349
2018-01-31 12:00:00+00:00,233.0,239.0,10.88,12.76,,47.59359,-54.27349
2018-01-31 12:10:00+00:00,231.0,229.0,11.27,13.6,,47.59359,-54.27349
2018-01-31 12:20:00+00:00,226.0,230.0,12.98,15.07,,47.59359,-54.27349
2018-01-31 12:30:00+00:00,225.0,231.0,12.56,15.07,,47.59359,-54.27349
2018-01-31 12:40:00+00:00,228.0,228.0,13.05,15.07,,47.59359,-54.27349
2018-01-31 12:50:00+00:00,226.0,226.0,12.75,14.7,,47.59359,-54.27349
2018-01-31 13:00:00+00:00,225.0,221.0,12.45,14.65,,47.59359,-54.27349
2018-01-31 13:10:00+00:00,230.0,228.0,13.97,17.02,,47.59359,-54.27349
2018-01-31 13:20:00+00:00,237.0,235.0,13.3,14.67,,47.59359,-54.27349
2018-01-31 13:30:00+00:00,231.0,232.0,14.03,16.98,,47.59359,-54.27349
2018-01-31 13:40:00+00:00,237.0,233.0,17.3,20.89,,47.59359,-54.27349
2018-01-31 13:50:00+00:00,245.0,246.0,19.82,22.94,,47.59359,-54.27349
2018-01-31 14:00:00+00:00,244.0,243.0,18.52,23.38,,47.59359,-54.27349
2018-01-31 14:10:00+00:00,238.0,243.0,13.75,16.86,,47.59359,-54.27349
2018-01-31 14:20:00+00:00,236.0,237.0,14.82,17.93,,47.59359,-54.27349
2018-01-31 14:30:00+00:00,238.0,232.0,15.38,18.14,,47.59359,-54.27349
2018-01-31 14:40:00+00:00,237.0,237.0,16.22,21.12,,47.59359,-54.27349
2018-01-31 14:50:00+00:00,241.0,253.0,15.66,19.47,,47.59359,-54.27349
2018-01-31 15:00:00+00:00,239.0,233.0,14.62,17.55,,47.59359,-54.27349
2018-01-31 15:10:00+00:00,235.0,237.0,16.99,21.72,,47.59359,-54.27349
2018-01-31 15:20:00+00:00,236.0,234.0,14.22,16.72,,47.59359,-54.27349
2018-01-31 15:30:00+00:00,243.0,249.0,18.7,22.07,,47.59359,-54.27349
2018-01-31 15:40:00+00:00,244.0,249.0,13.7,18.75,,47.59359,-54.27349
2018-01-31 15:50:00+00:00,238.0,235.0,14.74,18.19,,47.59359,-54.27349
2018-01-31 16:00:00+00:00,240.0,244.0,13.58,15.97,,47.59359,-54.27349
2018-01-31 16:10:00+00:00,236.0,237.0,14.73,17.75,,47.59359,-54.27349
2018-01-31 16:20:00+00:00,240.0,248.0,16.31,19.49,,47.59359,-54.27349
2018-01-31 16:30:00+00:00,240.0,242.0,16.71,19.42,,47.59359,-54.27349
2018-01-31 16:40:00+00:00,240.0,240.0,14.85,18.85,,47.59359,-54.27349
2018-01-31 16:50:00+00:00,248.0,251.0,16.75,20.63,,47.59359,-54.27349
2018-01-31 17:00:00+00:00,247.0,261.0,13.45,17.19,,47.59359,-54.27349
2018-01-31 17:10:00+00:00,251.0,256.0,16.7,19.34,,47.59359,-54.27349
2018-01-31 17:20:00+00:00,258.0,262.0,15.79,18.05,,47.59359,-54.27349
2018-01-31 17:30:00+00:00,254.0,256.0,16.7,18.93,,47.59359,-54.27349
2018-01-31 17:40:00+00:00,259.0,250.0,14.13,16.48,,47.59359,-54.27349
2018-01-31 17:50:00+00:00,259.0,255.0,14.02,16.2,,47.59359,-54.27349
2018-01-31 18:00:00+00:00,253.0,249.0,14.84,17.86,,47.59359,-54.27349
2018-01-31 18:10:00+00:00,258.0,259.0,15.22,17.66,,47.59359,-54.27349
2018-01-31 18:20:00+00:00,242.0,240.0,13.94,17.15,,47.59359,-54.27349
2018-01-31 18:30:00+00:00,253.0,254.0,13.79,15.85,,47.59359,-54.27349
2018-01-31 18:40:00+00:00,256.0,254.0,12.81,16.46,,47.59359,-54.27349
2018-01-31 18:50:00+00:00,246.0,241.0,15.75,18.52,,47.59359,-54.27349
2018-01-31 19:00:00+00:00,264.0,276.0,13.28,15.14,,47.59359,-54.27349
2018-01-31 19:10:00+00:00,260.0,259.0,12.72,15.18,,47.59359,-54.27349
2018-01-31 19:20:00+00:00,266.0,267.0,15.39,16.89,,47.59359,-54.27349
2018-01-31 19:30:00+00:00,263.0,266.0,14.68,17.96,,47.59359,-54.27349
2018-01-31 19:40:00+00:00,257.0,251.0,15.44,18.32,,47.59359,-54.27349
2018-01-31 19:50:00+00:00,259.0,260.0,14.43,16.03,,47.59359,-54.27349
2018-01-31 20:00:00+00:00,255.0,249.0,14.48,17.15,,47.59359,-54.27349
2018-01-31 20:10:00+00:00,248.0,252.0,15.0,18.91,,47.59359,-54.27349
2018-01-31 20:20:00+00:00,261.0,266.0,13.37,15.7,,47.59359,-54.27349
2018-01-31 20:30:00+00:00,263.0,259.0,13.59,15.59,,47.59359,-54.27349
2018-01-31 20:40:00+00:00,255.0,242.0,14.13,16.41,,47.59359,-54.27349
2018-01-31 20:50:00+00:00,256.0,256.0,16.06,18.89,,47.59359,-54.27349
2018-01-31 21:00:00+00:00,262.0,262.0,14.73,18.23,,47.59359,-54.27349
2018-01-31 21:10:00+00:00,261.0,260.0,15.12,18.15,,47.59359,-54.27349
2018-01-31 21:20:00+00:00,267.0,271.0,14.09,15.8,,47.59359,-54.27349
2018-01-31 21:30:00+00:00,263.0,252.0,15.22,17.24,,47.59359,-54.27349
2018-01-31 21:40:00+00:00,271.0,273.0,16.22,18.81,,47.59359,-54.27349
2018-01-31 21:50:00+00:00,267.0,264.0,12.49,15.38,,47.59359,-54.27349
2018-01-31 22:00:00+00:00,267.0,262.0,13.28,15.46,,47.59359,-54.27349
2018-01-31 22:10:00+00:00,256.0,252.0,14.81,16.56,,47.59359,-54.27349
2018-01-31 22:20:00+00:00,264.0,268.0,12.61,14.3,,47.59359,-54.27349
2018-01-31 22:30:00+00:00,266.0,270.0,13.69,17.43,,47.59359,-54.27349
2018-01-31 22:40:00+00:00,272.0,277.0,15.26,18.84,,47.59359,-54.27349
2018-01-31 22:50:00+00:00,267.0,270.0,13.75,15.61,,47.59359,-54.27349
2018-01-31 23:00:00+00:00,267.0,272.0,12.77,15.16,,47.59359,-54.27349
2018-01-31 23:10:00+00:00,267.0,273.0,13.12,16.51,,47.59359,-54.27349
2018-01-31 23:20:00+00:00,280.0,285.0,12.91,14.42,,47.59359,-54.27349
2018-01-31 23:30:00+00:00,273.0,273.0,14.24,16.18,,47.59359,-54.27349
2018-01-31 23:40:00+00:00,262.0,260.0,14.64,17.93,,47.59359,-54.27349
2018-01-31 23:50:00+00:00,275.0,276.0,14.54,16.68,,47.59359,-54.27349
